COSMOS 1275 DEB, 12740

Orbit data source: Space-Track

COSMOS 1275 DEB, 12740 is space debris in LEO originally from a launch on Thu, 04 Jun 1981 UTC launched from the Plesetsk Missile And Space Complex (PKMTR). Debris objects in space refer to the collection of defunct objects orbiting the Earth. Examples of debris include non-operational satellites, rocket bodies, and fragments generated from explosions, collisions, or faulty payload assembly.

Loading next visibility...
Identifier
12740, 1981-053CH
Orbit
LEO
Country
Flag of CISCIS
Related business
Manufacturer
Unknown
Mission
Spacecraft
Bus & Motor
Unknown
Mass
Unknown
Launch date (UTC)
1981-06-04 (45 years ago)
Launch vehicle
Unknown
Launch site
Plesetsk Missile And Space Complex (PKMTR)
Object type
Payload
Rocket body
Debris
Shape & HBR
Unknown shape, 0.1 m
Radar Cross Section
Small (<0.1 m²)

Expand to show TLE details & history
Last TLE update: 10 hours ago

TLE from 10 hours ago
0 COSMOS 1275 DEB
1 12740U 81053CH  26119.80365459  .00004769  00000-0  14792-2 0  9991
2 12740  82.8360 242.1084 0011863 262.9222 249.3623 14.40943933290356
Epoch: 2026-04-29T19:17Z
TLE epoch observation values (Epoch: 2026-04-29T19:17:15.756Z)
Latitude
27.64796°
Longitude
-88.72175°
Altitude
761.827 km
Speed
7.474 km/s
True Right ascension
03h 53m 24s
True Declination
27° 30' 25"
Sunlit
Object was in daylight at epoch
Visualization orbit readout
Latitude
Unknown
Longitude
Unknown
Altitude
Unknown
Speed
Unknown
Apparent Right ascension
Unknown
Apparent Declination
Unknown
Sunlit
N/A
Visualization observer readout
Local Sidereal Time
13:12:46
Azimuth
Unknown
Elevation
Unknown
Doppler factor
Unknown
Orbital elements
Apogee altitude
760.903 km
Perigee altitude
743.985 km
Semi-major axis
7,130.581 km
Eccentricity
0.00119
Inclination
82.836°
RAAN
242.1084°
Arg. of periapsis
262.9222°
True anomaly
249.23515°
Mean anomaly
249.3623°
Eccentric anomaly
249.29872°
Mean motion
3.60459 °/min
Orbital period
99.87 mins
BSTAR
0.0014792
Loading maneuver chart data...
Computing Atmospheric mass density...
Loading historical data...
Loading historical data...
Loading historical data...
Loading historical data...
Loading historical data...
Loading historical data...
Loading historical data...

Documentation

Showing up to 5 results
|